Voltar ao catálogo

STARLINK-32785

AtivoComunicaçõesVLEO
NORAD 62531·PAYLOAD·🇺🇸 United States

Lançado Jan 8, 2025 de Cape Canaveral Space Force Station

Loading…

Próximas Passagens (próximas 24 horas)

TLE

AtualizadoSource: CelesTrak SupGP

Época: Sep 14, 2026, 21:11 UTC

1 62531C 25004W   26257.88312500  .00036403  00000+0  13189-2 0  2573
2 62531  43.0004 231.6202 0001192 257.0821   1.1049 15.27551346    19

Acompanhe STARLINK-32785 em tempo real com AllMySat

Download on the App Store